Location: Newark
(41.0000°N, 28.9500°W)
Time: 07:23:02
(UTC+00:00)

N. Korean satellite - Pass Details

Date: 31 January 2020
Orbit: 456 x 505 km, 97.2° (Epoch: 20 February)

Event Time Altitude Azimuth Distance (km) Brightness Sun altitude
Rises 20:01:36 0° 213° (SSW) 2,460 10.9 -9.9°
Reaches altitude 10° 20:04:52 10° 248° (WSW) 1,598 10.7 -10.5°
Maximum altitude 20:06:04 12° 269° (W) 1,512 10.5 -10.7°
Drops below altitude 10° 20:07:17 10° 290° (WNW) 1,607 10.1 -10.9°
Sets 20:10:37 0° 325° (NW) 2,498 10.5 -11.5°
